Location: Rounton
(54.4000°N, 1.3500°W)
Time: 19:27:06
(UTC+01:00)

S-56A Canister/Altair - Pass Details

Date: 13 September 2024
Orbit: 636 x 2487 km, 38.9° (Epoch: 06 October)

Event Time Altitude Azimuth Distance (km) Brightness Sun altitude
Rises 00:10:24 0° 258° (WSW) 4,206 11.3 -30.9°
Reaches altitude 10° 00:13:22 10° 247° (WSW) 3,491 10.8 -31.1°
Enters shadow 00:15:04 16° 238° (WSW) 3,173 10.5 -31.1°
Maximum altitude 00:20:52 29° 192° (SSW) 2,863 - -31.3°
Drops below altitude 10° 00:30:49 10° 140° (SE) 4,705 - -31.6°
Sets 00:35:38 0° 131° (SE) 5,923 - -31.7°
